Philip, SD

4:06 AM MDT on June 27, 2017 (GMT -0600)
Philip

Weather History for KPHP - December, 2014

Change the Weather History Date:

Thursday, December 11, 2014

  Actual Average Record
Temperature  
Mean Temperature 44 °F 24 °F  
Max Temperature 67 °F 36 °F 68 °F (1968)
Min Temperature 20 °F 11 °F -24 °F (1972)
Degree Days  
Heating Degree Days 21 41  
Month to date heating degree days 360 439  
Since 1 July heating degree days 2015 2074  
Cooling Degree Days 0 0  
Month to date cooling degree days 0 0  
Year to date cooling degree days 649 818  
Moisture  
Dew Point 24 °F    
Average Humidity 58    
Maximum Humidity 92    
Minimum Humidity 24    
Precipitation  
Precipitation 0.00 in 0.01 in 0.80 in (1949)
Month to date precipitation 0.00 0.17  
Year to date precipitation 16.21 17.09  
Sea Level Pressure  
Sea Level Pressure 29.97 in    
Wind  
Wind Speed 4 mph (SSE)    
Max Wind Speed 13 mph    
Max Gust Speed 17 mph    
Visibility 10 miles    
Events      
T = Trace of Precipitation, MM = Missing Value Source: NWS Daily Summary

Daily Weather History Graph

Daily Weather History Graph

Search for Another Location

Airport or City:

Trip Planner

Search our weather history database for the weather conditions in past years. The results will help you decide how hot, cold, wet, or windy it might be!

Date:

Astronomy

Dec. 11, 2014 Rise Set
Actual Time 7:11 AM MST 4:08 PM MST
Civil Twilight 6:38 AM MST 4:41 PM MST
Nautical Twilight 6:01 AM MST 5:17 PM MST
Astronomical Twilight 5:26 AM MST 5:52 PM MST
Moon 9:28 PM MST (12/11) 10:28 AM MST (12/11)
Length of Visible Light 10h 02m
Length of Day
8h 56m
Waning Gibbous, 75% of the Moon is Illuminated
Dec 11
Waning Gibbous
Dec 14
Last Quarter
Dec 21
New
Dec 28
First Quarter
Jan 4
Full

Hourly Weather History & Observations

Time (MST) Temp. Windchill Dew Point Humidity Pressure Visibility Wind Dir Wind Speed Gust Speed Precip Events Conditions
12:55 AM 23.0 °F 17.0 °F 19.0 °F 85% 30.04 in 10.0 mi WNW 4.6 mph - N/A   Clear
1:55 AM 21.9 °F 17.2 °F 19.0 °F 89% 30.03 in 10.0 mi West 3.5 mph - N/A   Clear
2:55 AM 23.0 °F - 19.9 °F 88% 30.01 in 10.0 mi Calm Calm - N/A   Clear
3:55 AM 21.9 °F - 19.0 °F 89% 30.02 in 10.0 mi Calm Calm - N/A   Clear
4:55 AM 19.9 °F 12.1 °F 17.1 °F 89% 30.03 in 10.0 mi West 5.8 mph - N/A   Clear
5:55 AM 21.0 °F - 17.1 °F 85% 30.04 in 10.0 mi Calm Calm - N/A   Clear
6:55 AM 19.9 °F - 17.1 °F 89% 30.05 in 10.0 mi Calm Calm - N/A   Clear
7:55 AM 23.0 °F - 19.9 °F 88% 30.05 in 10.0 mi Calm Calm - N/A   Clear
8:55 AM 30.0 °F 26.5 °F 25.0 °F 82% 30.05 in 10.0 mi ESE 3.5 mph - N/A   Clear
9:55 AM 39.0 °F - 28.9 °F 67% 30.04 in 10.0 mi Calm Calm - N/A   Clear
10:55 AM 50.0 °F - 30.9 °F 48% 29.98 in 10.0 mi ESE 4.6 mph - N/A   Clear
11:55 AM 59.0 °F - 30.9 °F 35% 29.94 in 10.0 mi SE 6.9 mph - N/A   Clear
12:55 PM 63.0 °F - 30.0 °F 29% 29.91 in 10.0 mi SSE 10.4 mph - N/A   Clear
1:55 PM 66.9 °F - 28.0 °F 23% 29.89 in 10.0 mi South 9.2 mph - N/A   Clear
2:55 PM 64.0 °F - 27.0 °F 25% 29.90 in 10.0 mi SE 10.4 mph - N/A   Clear
3:55 PM 55.9 °F - 26.1 °F 32% 29.92 in 10.0 mi ESE 5.8 mph - N/A   Clear
4:55 PM 55.0 °F - 26.1 °F 33% 29.93 in 10.0 mi SE 5.8 mph - N/A   Clear
5:55 PM 53.1 °F - 26.1 °F 35% 29.92 in 10.0 mi SSE 11.5 mph - N/A   Clear
6:55 PM 48.0 °F - 25.0 °F 41% 29.95 in 10.0 mi Variable 4.6 mph - N/A   Clear
7:55 PM 42.1 °F - 24.1 °F 49% 29.96 in 10.0 mi Calm Calm - N/A   Clear
8:55 PM 46.9 °F - 25.0 °F 42% 29.93 in 10.0 mi WSW 3.5 mph 16.1 mph N/A   Clear
9:55 PM 48.0 °F - 25.0 °F 41% 29.91 in 10.0 mi Variable 5.8 mph - N/A   Clear
10:55 PM 39.9 °F 37.8 °F 24.1 °F 53% 29.92 in 10.0 mi ENE 3.5 mph - N/A   Clear
11:55 PM 42.1 °F 39.2 °F 24.1 °F 49% 29.90 in 10.0 mi South 4.6 mph - N/A   Clear